軌道要素
Epoch 2022 Aug. 9.0 TT = JDT 2459800.5
T 2021 Oct. 14.05137 TT Rudenko
q 3.0581844 (2000.0) P Q
z +0.0007852 Peri. 51.51839 +0.84496327 -0.02716183
+/-0.0000122 Node 56.83498 -0.02329576 -0.99963085
e 0.9975986 Incl. 140.35135 +0.53431675 -0.00062962
From 120 observations 2021 Sept. 15-2022 July 20, mean residual 0".5.
|